Погода в Голухе

Россия / Алтайский край     53°50′31″N   85°26′18″E
темп.,
°C
ветер,
м/с
пор.,
м/с
влажн.,
%
обл.,
%
осадки,
мм/ч
давл.,
гПа
погр.,
м
14 июня, пн
пн1401:00+12сз2293100 0.3 101532
04:00+12зсз2599100 1.5 1014200
07:00+13с269845 2.2 1015340
10:00+15ссв467953 0.1 1017852
13:00+18с45515 0.1 10171745
16:00+19ссв55512 0.0 10171832
19:00+17ссв476148 0.0 1018457
22:00+11ссв22700 0.0 102012
15 июня, вт
вт1501:00+9ссв22725 0.0 102012
04:00+7св11745 0.0 102010
07:00+11с11715 0.0 102054
10:00+16з116419 0.0 1020487
13:00+19зюз3359100 0.0 1018910
16:00+21з446196 0.0 1017795
19:00+20з35753 0.1 1016511
22:00+14з119166 1.2 101711
16 июня, ср
ср1601:00+13зюз119398 2.2 101610
04:00+12юз11938 0.2 101610
07:00+13ю23915 0.2 101699
10:00+18юз34785 0.0 1016461
13:00+22юз34695 0.0 10151021
16:00+23з346694 0.6 10131353
19:00+21з2588100 2.2 1013218
22:00+16ююз128857 0.3 101311
17 июня, чт
чт1701:00+14вюв11865 0.5 101311
04:00+13ююв11884 0.0 101210
07:00+15ю12886 0.0 101274
10:00+20ююз357651 0.1 1011468
13:00+24юз4567100 0.1 10101005
16:00+24зюз3672100 1.0 10081241
19:00+15зсз61392100 6.1 1009321
22:00+15ююв119151 5.9 100811
18 июня, пт
пт1801:00+15юв1189100 5.9 100712
04:00+14юв119583 1.2 100610
07:00+17юв2395100 1.3 1006117
10:00+20ю348167 0.0 1005471
13:00+23юз357828 0.6 1004682
16:00+25з46655 0.3 10031540
19:00+23зсз358118 1.3 1003308
22:00+19юв11838 0.1 100311